Total_Precipitation_Accumulation
0.22 0.20 0.13 0.17 0.13 0.05 0.06 0.08 0.04 0.03 0.05 0.02 0.03 0.05 0.03 0.03 0.06 0.11 0.16 0.33 0.56 0.66 0.53 0.37 0.28 0.23 0.22 0.22 0.25 0.24 0.23 0.24 0.26 0.28 0.25 0.19 0.19 0.17 0.11 0.08 0.12 0.14 0.11
0.22 0.23 0.14 0.13 0.08 0.08 0.10 0.05 0.04 0.05 0.06 0.01 0.01 0.02 0.02 0.02 0.04 0.10 0.20 0.31 0.50 0.77 0.87 0.69 0.54 0.43 0.33 0.26 0.26 0.27 0.25 0.22 0.22 0.24 0.22 0.17 0.16 0.14 0.10 0.08 0.13 0.16 0.15
0.27 0.32 0.25 0.17 0.12 0.12 0.10 0.09 0.11 0.07 0.07 0.02 0.01 0.01 0.02 0.04 0.04 0.04 0.09 0.23 0.31 0.40 0.64 0.78 0.78 0.68 0.49 0.34 0.27 0.22 0.21 0.21 0.19 0.20 0.20 0.16 0.14 0.11 0.09 0.09 0.12 0.13 0.13
0.39 0.49 0.45 0.32 0.27 0.25 0.18 0.14 0.09 0.07 0.08 0.06 0.05 0.03 0.02 0.02 0.04 0.03 0.03 0.05 0.07 0.10 0.16 0.25 0.31 0.43 0.49 0.45 0.36 0.26 0.21 0.16 0.14 0.15 0.16 0.13 0.10 0.09 0.09 0.09 0.09 0.10 0.11
0.63 0.74 0.74 0.57 0.42 0.43 0.35 0.23 0.16 0.16 0.12 0.13 0.09 0.08 0.03 0.02 0.02 0.02 0.02 0.02 0.02 0.03 0.06 0.06 0.08 0.13 0.21 0.27 0.33 0.32 0.26 0.18 0.13 0.12 0.11 0.09 0.08 0.09 0.09 0.09 0.08 0.10 0.11
0.93 1.02 1.01 0.89 0.74 0.69 0.63 0.44 0.39 0.34 0.29 0.28 0.18 0.13 0.08 0.05 0.02 0.02 0.02 0.02 0.02 0.01 0.02 0.01 0.03 0.04 0.05 0.09 0.13 0.20 0.23 0.19 0.15 0.13 0.12 0.10 0.08 0.07 0.08 0.09 0.09 0.10 0.10
1.33 1.37 1.24 1.35 1.30 1.13 1.04 0.85 0.82 0.76 0.55 0.35 0.51 0.52 0.26 0.11 0.06 0.05 0.04 0.02 0.02 0.02 0.01 0.01 0.02 0.03 0.02 0.02 0.03 0.06 0.10 0.13 0.13 0.11 0.11 0.10 0.08 0.08 0.08 0.09 0.10 0.13 0.13
1.70 1.58 1.55 1.68 1.66 1.65 1.64 1.35 1.29 1.22 0.88 0.56 0.82 1.04 0.68 0.42 0.19 0.09 0.07 0.05 0.04 0.04 0.03 0.02 0.01 0.01 0.01 0.02 0.01 0.01 0.03 0.07 0.10 0.10 0.09 0.08 0.07 0.07 0.06 0.07 0.11 0.15 0.14
2.09 1.95 1.88 1.92 1.86 1.82 1.92 1.86 1.69 1.60 1.40 1.02 0.89 1.05 0.95 0.81 0.57 0.18 0.10 0.10 0.10 0.10 0.08 0.06 0.04 0.02 0.01 0.02 0.01 0.00 0.01 0.02 0.05 0.07 0.07 0.06 0.07 0.07 0.06 0.06 0.11 0.14 0.11
2.22 2.16 2.10 2.11 2.04 1.90 1.89 1.92 1.84 1.85 1.88 1.55 1.24 1.01 0.84 0.83 0.80 0.51 0.24 0.15 0.19 0.20 0.17 0.11 0.06 0.04 0.04 0.03 0.04 0.02 0.01 0.01 0.02 0.05 0.07 0.08 0.08 0.08 0.07 0.08 0.12 0.12 0.10
1.90 1.89 1.99 2.09 2.04 1.97 1.93 2.01 2.03 2.06 1.93 1.77 1.57 1.43 1.29 1.10 0.80 0.75 0.63 0.38 0.26 0.24 0.23 0.19 0.15 0.10 0.07 0.07 0.10 0.05 0.03 0.01 0.01 0.03 0.05 0.07 0.09 0.10 0.11 0.11 0.11 0.11 0.13
1.68 1.64 1.72 1.82 1.88 1.87 1.84 1.81 1.86 1.90 1.91 1.91 1.76 1.56 1.47 1.36 1.24 1.11 0.83 0.62 0.48 0.29 0.23 0.20 0.19 0.17 0.15 0.13 0.14 0.13 0.07 0.03 0.01 0.02 0.03 0.04 0.06 0.09 0.11 0.14 0.12 0.11 0.11
1.59 1.55 1.54 1.63 1.70 1.69 1.73 1.81 1.73 1.69 1.75 1.79 1.74 1.65 1.59 1.42 1.27 1.26 1.07 0.83 0.69 0.42 0.25 0.19 0.16 0.15 0.17 0.15 0.18 0.16 0.08 0.07 0.03 0.02 0.02 0.03 0.04 0.05 0.08 0.16 0.21 0.22 0.28
1.21 1.17 1.22 1.33 1.50 1.58 1.64 1.70 1.68 1.61 1.58 1.55 1.57 1.59 1.58 1.52 1.31 1.19 1.15 1.15 1.00 0.76 0.52 0.32 0.21 0.17 0.15 0.14 0.19 0.20 0.10 0.08 0.05 0.03 0.02 0.02 0.03 0.04 0.05 0.09 0.15 0.23 0.44
0.88 0.88 0.92 1.04 1.19 1.32 1.38 1.42 1.49 1.49 1.46 1.41 1.42 1.42 1.39 1.43 1.36 1.19 1.11 1.09 1.13 0.98 0.88 0.68 0.42 0.23 0.19 0.17 0.19 0.16 0.13 0.10 0.08 0.06 0.04 0.02 0.02 0.03 0.03 0.04 0.04 0.06 0.11
0.79 0.83 0.81 0.84 0.93 1.02 1.12 1.19 1.26 1.31 1.25 1.18 1.17 1.19 1.25 1.31 1.36 1.33 1.28 1.21 1.18 1.08 0.99 0.82 0.56 0.32 0.25 0.24 0.23 0.19 0.18 0.19 0.13 0.08 0.06 0.04 0.03 0.02 0.02 0.02 0.02 0.01 0.02
0.76 0.74 0.78 0.82 0.80 0.87 0.92 0.98 1.09 1.19 1.14 1.10 1.03 1.02 1.12 1.16 1.33 1.40 1.35 1.25 1.20 1.12 1.01 0.95 0.71 0.44 0.33 0.30 0.29 0.23 0.20 0.19 0.17 0.12 0.07 0.06 0.05 0.04 0.03 0.02 0.02 0.01 0.01
0.65 0.71 0.79 0.76 0.73 0.76 0.78 0.87 0.98 1.03 1.03 0.95 0.87 0.86 0.93 0.99 1.13 1.26 1.36 1.27 1.21 1.13 1.10 1.06 0.87 0.64 0.50 0.42 0.34 0.27 0.21 0.19 0.21 0.18 0.13 0.09 0.07 0.07 0.05 0.03 0.02 0.02 0.01
0.57 0.67 0.72 0.77 0.72 0.66 0.71 0.76 0.82 0.83 0.75 0.69 0.68 0.69 0.73 0.79 0.89 1.02 1.15 1.24 1.21 1.13 1.16 1.17 0.99 0.76 0.58 0.46 0.42 0.36 0.27 0.26 0.21 0.19 0.17 0.14 0.11 0.09 0.07 0.05 0.05 0.04 0.03
0.48 0.52 0.58 0.62 0.66 0.62 0.60 0.62 0.64 0.72 0.66 0.55 0.48 0.47 0.52 0.56 0.62 0.75 0.88 1.03 1.14 1.18 1.21 1.21 1.10 0.84 0.64 0.49 0.43 0.43 0.43 0.37 0.32 0.23 0.19 0.18 0.16 0.14 0.10 0.09 0.07 0.05 0.04
0.36 0.41 0.52 0.64 0.69 0.66 0.66 0.66 0.58 0.60 0.64 0.61 0.53 0.45 0.41 0.41 0.46 0.53 0.64 0.83 0.97 1.09 1.17 1.20 1.15 0.98 0.79 0.65 0.51 0.46 0.46 0.49 0.48 0.40 0.34 0.28 0.27 0.23 0.19 0.13 0.09 0.07 0.06
0.30 0.33 0.40 0.50 0.64 0.63 0.73 0.72 0.64 0.59 0.60 0.58 0.56 0.57 0.56 0.50 0.39 0.31 0.31 0.43 0.60 0.79 0.96 1.05 1.09 0.99 0.83 0.72 0.66 0.57 0.50 0.45 0.46 0.46 0.47 0.46 0.42 0.37 0.34 0.29 0.25 0.20 0.16
0.30 0.32 0.36 0.46 0.60 0.74 0.71 0.57 0.64 0.62 0.58 0.57 0.52 0.52 0.58 0.57 0.60 0.49 0.38 0.32 0.34 0.44 0.61 0.77 0.83 0.82 0.87 0.77 0.63 0.51 0.46 0.43 0.40 0.38 0.40 0.41 0.41 0.40 0.38 0.38 0.38 0.35 0.32
0.31 0.33 0.36 0.40 0.45 0.59 0.57 0.48 0.64 0.63 0.64 0.63 0.58 0.57 0.61 0.61 0.60 0.71 0.68 0.59 0.50 0.48 0.57 0.46 0.49 0.67 0.72 0.69 0.61 0.53 0.49 0.43 0.35 0.30 0.30 0.35 0.36 0.35 0.30 0.28 0.29 0.28 0.27
0.34 0.34 0.33 0.35 0.37 0.42 0.47 0.42 0.51 0.62 0.69 0.68 0.60 0.58 0.62 0.59 0.73 0.78 0.70 0.66 0.62 0.56 0.72 0.74 0.69 0.61 0.55 0.49 0.48 0.51 0.49 0.44 0.40 0.33 0.29 0.28 0.31 0.35 0.35 0.31 0.28 0.26 0.23
0.41 0.38 0.36 0.34 0.36 0.37 0.47 0.33 0.41 0.55 0.64 0.71 0.66 0.59 0.76 0.71 0.70 0.62 0.51 0.62 0.68 0.62 0.57 0.57 0.57 0.52 0.44 0.39 0.38 0.39 0.47 0.47 0.42 0.40 0.34 0.31 0.32 0.34 0.34 0.32 0.29 0.28 0.26